Location: Middelsbur
(53.6609°N, 7.5020°E)
Time: 00:18:54
(UTC+00:00)

USA 215 - Pass Details

Date: 06 July 2020
Orbit: 1102 x 1106 km, 123.0° (Epoch: 31 July)

Event Time Altitude Azimuth Distance (km) Brightness Sun altitude
Rises 21:57:24 0° 61° (ENE) 3,927 6.2 -10.9°
Reaches altitude 10° 21:59:56 10° 65° (ENE) 2,967 5.6 -11.1°
Maximum altitude 22:06:26 62° 146° (SE) 1,227 3.3 -11.4°
Drops below altitude 10° 22:12:54 10° 227° (SW) 2,957 5.3 -11.7°
Sets 22:15:25 0° 230° (SW) 3,912 5.9 -11.9°
